User: anonymous
Location: Mount Tamalpais State Park
(37.9108°N, 122.6128°W)
Time: 08:50:06
(UTC-07:00)
Language:

Cosmos 1814 Rocket - Orbit

View from above orbital plane
View from above orbital plane
View from above satellite
View from above satellite

Ground track
Ground track

The orbit data is extracted from the following two-line orbital elements,

1 17304U 87006B   14261.15677642  .00000161  00000-0  62358-4 0  2212
2 17304 074.0588 134.0076 0030538 225.6298 251.2901 14.37343771449178
Epoch (UTC): 18 September 2014 03:45:45
Eccentricity: 0.0030538
inclination: 74.0588°
perigee height: 745 km
apogee height: 789 km
right ascension of ascending node: 134.0076°
argument of perigee: 225.6298°
revolutions per day: 14.37343771
mean anomaly at epoch: 251.2901°
orbit number at epoch: 44917

The dashed part of the orbit path shows where the satellite is in the earth's shadow,  

DLR